Multibeam Report for RR1511


Ship Name: Roger Revelle
Chief Scientist: Wijesekera, Hemantha
Naval Research Laboratory
Source Organization: Rolling Deck to Repository
Start Date: 2015-08-04
End Date: 2015-08-15


View ISO Metadata

Visit the full NCEI Bathymetry Viewer


Multibeam Bathymetry

Cruise Details

Project: Air-Sea Interactions in the Northern Indian Ocean (ASIRI)/Effects of Bay of Bengal Freshwater Flux on Indian Ocean Monsoon (EBoB)
Instrument: Kongsberg EM122

Data Quality

Number of Files: 316
Number of Records: 53611
BATHYMETRY DATA Quantity Percentage
Number of Beams 15439968 100%
Number of Good Beams 14056402 91.04%
Number of Zero Beams 2023 0.01%
Number of Flagged Beams 1381543 8.95%
AMPLITUDE DATA Quantity Percentage
Number of Beams 15439968 100%
Number of Good Beams 14056402 91.04%
Number of Zero Beams 2023 0.01%
Number of Flagged Beams 1381543 8.95%
SIDESCAN DATA Quantity Percentage
Number of Pixels 54897664 100%
Number of Good Pixels 29437367 53.62%
Number of Zero Pixels 0 0%
Number of Flagged Pixels 25460297 46.38%

Navigation Totals

Total Time: 151.9934 hours
Total Track Length: 1226.5489 km
Average Speed: 8.07 km/hr (4.3575 knots)

Cruise Bounds

Northern Extent: 8.040419
Southern Extent: 4.964706
Western Extent: 84.73277
Eastern Extent: 88.53023

Limits

Minimum Sonar Depth 2.4547 Maximum Sonar Depth 8.3107
Minimum Altitude 219.2478 Maximum Altitude 7990.4238
Minimum Depth 161.0638 Maximum Depth 8101.9438
Minimum Amplitude 0 Maximum Amplitude 6.4
Minimum Sidescan 0 Maximum Sidescan 26.88

File Information

Full Resolution Bathymetry as collected (raw): 312

Files File Size Description
0000_20150805_150556_revelle.all.mb58.gz 29.43MB Kongsberg multibeam vendor format
0001_20150805_153540_revelle.all.mb58.gz 29.69MB Kongsberg multibeam vendor format
0002_20150805_160544_revelle.all.mb58.gz 29.42MB Kongsberg multibeam vendor format
0003_20150805_163536_revelle.all.mb58.gz 30.00MB Kongsberg multibeam vendor format
0004_20150805_170554_revelle.all.mb58.gz 29.62MB Kongsberg multibeam vendor format
0005_20150805_173546_revelle.all.mb58.gz 29.74MB Kongsberg multibeam vendor format
0006_20150805_180550_revelle.all.mb58.gz 29.86MB Kongsberg multibeam vendor format
0007_20150805_183548_revelle.all.mb58.gz 29.83MB Kongsberg multibeam vendor format
0008_20150805_190548_revelle.all.mb58.gz 29.13MB Kongsberg multibeam vendor format
0009_20150805_193554_revelle.all.mb58.gz 29.32MB Kongsberg multibeam vendor format
0010_20150805_200541_revelle.all.mb58.gz 29.75MB Kongsberg multibeam vendor format
0011_20150805_203554_revelle.all.mb58.gz 29.47MB Kongsberg multibeam vendor format
0012_20150805_210549_revelle.all.mb58.gz 29.54MB Kongsberg multibeam vendor format
0013_20150805_213550_revelle.all.mb58.gz 29.25MB Kongsberg multibeam vendor format
0014_20150805_220538_revelle.all.mb58.gz 29.41MB Kongsberg multibeam vendor format
0015_20150805_223539_revelle.all.mb58.gz 29.74MB Kongsberg multibeam vendor format
0016_20150805_230554_revelle.all.mb58.gz 29.36MB Kongsberg multibeam vendor format
0017_20150805_233542_revelle.all.mb58.gz 29.45MB Kongsberg multibeam vendor format
0018_20150806_000538_revelle.all.mb58.gz 30.02MB Kongsberg multibeam vendor format
0019_20150806_003545_revelle.all.mb58.gz 141.9KB Kongsberg multibeam vendor format
0020_20150806_053800_revelle.all.mb58.gz 29.26MB Kongsberg multibeam vendor format
0021_20150806_060748_revelle.all.mb58.gz 30.06MB Kongsberg multibeam vendor format
0022_20150806_063753_revelle.all.mb58.gz 29.72MB Kongsberg multibeam vendor format
0023_20150806_070747_revelle.all.mb58.gz 29.89MB Kongsberg multibeam vendor format
0024_20150806_073757_revelle.all.mb58.gz 29.58MB Kongsberg multibeam vendor format
0025_20150806_080740_revelle.all.mb58.gz 29.98MB Kongsberg multibeam vendor format
0026_20150806_083749_revelle.all.mb58.gz 30.12MB Kongsberg multibeam vendor format
0027_20150806_090755_revelle.all.mb58.gz 29.78MB Kongsberg multibeam vendor format
0028_20150806_093738_revelle.all.mb58.gz 29.85MB Kongsberg multibeam vendor format
0029_20150806_100739_revelle.all.mb58.gz 29.94MB Kongsberg multibeam vendor format
0030_20150806_103736_revelle.all.mb58.gz 30.14MB Kongsberg multibeam vendor format
0031_20150806_110742_revelle.all.mb58.gz 30.33MB Kongsberg multibeam vendor format
0032_20150806_113745_revelle.all.mb58.gz 29.94MB Kongsberg multibeam vendor format
0033_20150806_120741_revelle.all.mb58.gz 29.96MB Kongsberg multibeam vendor format
0034_20150806_123750_revelle.all.mb58.gz 29.87MB Kongsberg multibeam vendor format
0035_20150806_130741_revelle.all.mb58.gz 30.04MB Kongsberg multibeam vendor format
0036_20150806_133735_revelle.all.mb58.gz 30.42MB Kongsberg multibeam vendor format
0037_20150806_140748_revelle.all.mb58.gz 29.85MB Kongsberg multibeam vendor format
0038_20150806_143752_revelle.all.mb58.gz 29.09MB Kongsberg multibeam vendor format
0039_20150806_150745_revelle.all.mb58.gz 29.39MB Kongsberg multibeam vendor format
0040_20150806_153753_revelle.all.mb58.gz 29.17MB Kongsberg multibeam vendor format
0041_20150806_160741_revelle.all.mb58.gz 29.28MB Kongsberg multibeam vendor format
0042_20150806_163746_revelle.all.mb58.gz 29.04MB Kongsberg multibeam vendor format
0043_20150806_170737_revelle.all.mb58.gz 29.52MB Kongsberg multibeam vendor format
0044_20150806_173748_revelle.all.mb58.gz 29.08MB Kongsberg multibeam vendor format
0045_20150806_180737_revelle.all.mb58.gz 29.45MB Kongsberg multibeam vendor format
0046_20150806_183754_revelle.all.mb58.gz 28.89MB Kongsberg multibeam vendor format
0047_20150806_190734_revelle.all.mb58.gz 30.17MB Kongsberg multibeam vendor format
0048_20150806_193748_revelle.all.mb58.gz 29.71MB Kongsberg multibeam vendor format
0049_20150806_200740_revelle.all.mb58.gz 29.46MB Kongsberg multibeam vendor format
0050_20150806_203748_revelle.all.mb58.gz 29.24MB Kongsberg multibeam vendor format
0051_20150806_210745_revelle.all.mb58.gz 29.30MB Kongsberg multibeam vendor format
0052_20150806_213745_revelle.all.mb58.gz 29.43MB Kongsberg multibeam vendor format
0053_20150806_220750_revelle.all.mb58.gz 29.36MB Kongsberg multibeam vendor format
0054_20150806_223751_revelle.all.mb58.gz 29.17MB Kongsberg multibeam vendor format
0055_20150806_230739_revelle.all.mb58.gz 29.46MB Kongsberg multibeam vendor format
0056_20150806_233747_revelle.all.mb58.gz 25.25MB Kongsberg multibeam vendor format
0057_20150807_045339_revelle.all.mb58.gz 29.84MB Kongsberg multibeam vendor format
0058_20150807_052324_revelle.all.mb58.gz 30.29MB Kongsberg multibeam vendor format
0059_20150807_055333_revelle.all.mb58.gz 30.00MB Kongsberg multibeam vendor format
0060_20150807_062324_revelle.all.mb58.gz 30.18MB Kongsberg multibeam vendor format
0061_20150807_065327_revelle.all.mb58.gz 29.96MB Kongsberg multibeam vendor format
0062_20150807_072324_revelle.all.mb58.gz 30.27MB Kongsberg multibeam vendor format
0063_20150807_075331_revelle.all.mb58.gz 29.85MB Kongsberg multibeam vendor format
0064_20150807_082324_revelle.all.mb58.gz 30.06MB Kongsberg multibeam vendor format
0065_20150807_085323_revelle.all.mb58.gz 30.05MB Kongsberg multibeam vendor format
0066_20150807_092320_revelle.all.mb58.gz 30.00MB Kongsberg multibeam vendor format
0067_20150807_095324_revelle.all.mb58.gz 30.15MB Kongsberg multibeam vendor format
0068_20150807_102324_revelle.all.mb58.gz 29.92MB Kongsberg multibeam vendor format
0069_20150807_105325_revelle.all.mb58.gz 29.89MB Kongsberg multibeam vendor format
0070_20150807_112322_revelle.all.mb58.gz 30.18MB Kongsberg multibeam vendor format
0071_20150807_115331_revelle.all.mb58.gz 29.61MB Kongsberg multibeam vendor format
0072_20150807_122318_revelle.all.mb58.gz 29.40MB Kongsberg multibeam vendor format
0073_20150807_125329_revelle.all.mb58.gz 29.02MB Kongsberg multibeam vendor format
0074_20150807_132318_revelle.all.mb58.gz 29.73MB Kongsberg multibeam vendor format
0075_20150807_135334_revelle.all.mb58.gz 29.26MB Kongsberg multibeam vendor format
0076_20150807_142321_revelle.all.mb58.gz 29.47MB Kongsberg multibeam vendor format
0077_20150807_145331_revelle.all.mb58.gz 29.30MB Kongsberg multibeam vendor format
0078_20150807_152330_revelle.all.mb58.gz 29.19MB Kongsberg multibeam vendor format
0079_20150807_155328_revelle.all.mb58.gz 29.05MB Kongsberg multibeam vendor format
0080_20150807_162314_revelle.all.mb58.gz 29.52MB Kongsberg multibeam vendor format
0081_20150807_165327_revelle.all.mb58.gz 29.23MB Kongsberg multibeam vendor format
0082_20150807_172320_revelle.all.mb58.gz 29.76MB Kongsberg multibeam vendor format
0083_20150807_175328_revelle.all.mb58.gz 29.33MB Kongsberg multibeam vendor format
0084_20150807_182319_revelle.all.mb58.gz 29.44MB Kongsberg multibeam vendor format
0085_20150807_185319_revelle.all.mb58.gz 29.50MB Kongsberg multibeam vendor format
0086_20150807_192324_revelle.all.mb58.gz 29.25MB Kongsberg multibeam vendor format
0087_20150807_195314_revelle.all.mb58.gz 29.27MB Kongsberg multibeam vendor format
0088_20150807_202319_revelle.all.mb58.gz 29.35MB Kongsberg multibeam vendor format
0089_20150807_205329_revelle.all.mb58.gz 29.51MB Kongsberg multibeam vendor format
0090_20150807_212328_revelle.all.mb58.gz 29.41MB Kongsberg multibeam vendor format
0091_20150807_215319_revelle.all.mb58.gz 29.59MB Kongsberg multibeam vendor format
0092_20150807_222323_revelle.all.mb58.gz 29.50MB Kongsberg multibeam vendor format
0093_20150807_225320_revelle.all.mb58.gz 29.35MB Kongsberg multibeam vendor format
0094_20150807_232316_revelle.all.mb58.gz 29.84MB Kongsberg multibeam vendor format
0095_20150807_235324_revelle.all.mb58.gz 29.52MB Kongsberg multibeam vendor format
0096_20150808_002315_revelle.all.mb58.gz 29.63MB Kongsberg multibeam vendor format
0097_20150808_005317_revelle.all.mb58.gz 29.61MB Kongsberg multibeam vendor format
0098_20150808_012318_revelle.all.mb58.gz 29.73MB Kongsberg multibeam vendor format
0099_20150808_015329_revelle.all.mb58.gz 29.34MB Kongsberg multibeam vendor format
0100_20150808_022313_revelle.all.mb58.gz 29.69MB Kongsberg multibeam vendor format
0101_20150808_025311_revelle.all.mb58.gz 30.00MB Kongsberg multibeam vendor format
0102_20150808_032314_revelle.all.mb58.gz 6.70MB Kongsberg multibeam vendor format
0103_20150808_080927_revelle.all.mb58.gz 29.70MB Kongsberg multibeam vendor format
0104_20150808_083906_revelle.all.mb58.gz 30.47MB Kongsberg multibeam vendor format
0105_20150808_090920_revelle.all.mb58.gz 30.14MB Kongsberg multibeam vendor format
0106_20150808_093910_revelle.all.mb58.gz 30.31MB Kongsberg multibeam vendor format
0107_20150808_100914_revelle.all.mb58.gz 30.16MB Kongsberg multibeam vendor format
0108_20150808_103914_revelle.all.mb58.gz 30.05MB Kongsberg multibeam vendor format
0109_20150808_110915_revelle.all.mb58.gz 30.08MB Kongsberg multibeam vendor format
0110_20150808_113915_revelle.all.mb58.gz 30.24MB Kongsberg multibeam vendor format
0111_20150808_120918_revelle.all.mb58.gz 30.04MB Kongsberg multibeam vendor format
0112_20150808_123912_revelle.all.mb58.gz 30.66MB Kongsberg multibeam vendor format
0113_20150808_130919_revelle.all.mb58.gz 30.24MB Kongsberg multibeam vendor format
0114_20150808_133906_revelle.all.mb58.gz 30.44MB Kongsberg multibeam vendor format
0115_20150808_140907_revelle.all.mb58.gz 30.64MB Kongsberg multibeam vendor format
0116_20150808_143917_revelle.all.mb58.gz 29.98MB Kongsberg multibeam vendor format
0117_20150808_150907_revelle.all.mb58.gz 29.94MB Kongsberg multibeam vendor format
0118_20150808_153922_revelle.all.mb58.gz 29.28MB Kongsberg multibeam vendor format
0119_20150808_160917_revelle.all.mb58.gz 29.33MB Kongsberg multibeam vendor format
0120_20150808_163909_revelle.all.mb58.gz 29.44MB Kongsberg multibeam vendor format
0121_20150808_170905_revelle.all.mb58.gz 29.77MB Kongsberg multibeam vendor format
0122_20150808_173917_revelle.all.mb58.gz 29.39MB Kongsberg multibeam vendor format
0123_20150808_180916_revelle.all.mb58.gz 29.50MB Kongsberg multibeam vendor format
0124_20150808_183914_revelle.all.mb58.gz 29.53MB Kongsberg multibeam vendor format
0125_20150808_190916_revelle.all.mb58.gz 29.66MB Kongsberg multibeam vendor format
0126_20150808_193918_revelle.all.mb58.gz 29.58MB Kongsberg multibeam vendor format
0127_20150808_200912_revelle.all.mb58.gz 29.53MB Kongsberg multibeam vendor format
0128_20150808_203911_revelle.all.mb58.gz 29.69MB Kongsberg multibeam vendor format
0129_20150808_210914_revelle.all.mb58.gz 29.50MB Kongsberg multibeam vendor format
0130_20150808_213909_revelle.all.mb58.gz 29.84MB Kongsberg multibeam vendor format
0131_20150808_220920_revelle.all.mb58.gz 29.84MB Kongsberg multibeam vendor format
0132_20150808_223919_revelle.all.mb58.gz 29.58MB Kongsberg multibeam vendor format
0133_20150808_230916_revelle.all.mb58.gz 29.74MB Kongsberg multibeam vendor format
0134_20150808_233918_revelle.all.mb58.gz 29.37MB Kongsberg multibeam vendor format
0135_20150809_000906_revelle.all.mb58.gz 29.37MB Kongsberg multibeam vendor format
0136_20150809_003902_revelle.all.mb58.gz 29.36MB Kongsberg multibeam vendor format
0137_20150809_011002_revelle.all.mb58.gz 29.87MB Kongsberg multibeam vendor format
0138_20150809_014018_revelle.all.mb58.gz 29.78MB Kongsberg multibeam vendor format
0139_20150809_021020_revelle.all.mb58.gz 7.23MB Kongsberg multibeam vendor format
0141_20150809_054126_revelle.all.mb58.gz 29.34MB Kongsberg multibeam vendor format
0142_20150809_061110_revelle.all.mb58.gz 29.36MB Kongsberg multibeam vendor format
0143_20150809_064111_revelle.all.mb58.gz 30.64MB Kongsberg multibeam vendor format
0144_20150809_071109_revelle.all.mb58.gz 30.60MB Kongsberg multibeam vendor format
0145_20150809_074108_revelle.all.mb58.gz 30.64MB Kongsberg multibeam vendor format
0146_20150809_081105_revelle.all.mb58.gz 30.86MB Kongsberg multibeam vendor format
0147_20150809_084104_revelle.all.mb58.gz 30.89MB Kongsberg multibeam vendor format
0148_20150809_091114_revelle.all.mb58.gz 30.44MB Kongsberg multibeam vendor format
0149_20150809_094109_revelle.all.mb58.gz 30.64MB Kongsberg multibeam vendor format
0150_20150809_101112_revelle.all.mb58.gz 30.33MB Kongsberg multibeam vendor format
0151_20150809_104107_revelle.all.mb58.gz 30.74MB Kongsberg multibeam vendor format
0152_20150809_111109_revelle.all.mb58.gz 30.83MB Kongsberg multibeam vendor format
0153_20150809_114114_revelle.all.mb58.gz 30.51MB Kongsberg multibeam vendor format
0154_20150809_121109_revelle.all.mb58.gz 30.58MB Kongsberg multibeam vendor format
0155_20150809_124106_revelle.all.mb58.gz 30.70MB Kongsberg multibeam vendor format
0156_20150809_131106_revelle.all.mb58.gz 30.88MB Kongsberg multibeam vendor format
0157_20150809_134111_revelle.all.mb58.gz 30.52MB Kongsberg multibeam vendor format
0158_20150809_141106_revelle.all.mb58.gz 29.79MB Kongsberg multibeam vendor format
0159_20150809_144118_revelle.all.mb58.gz 29.38MB Kongsberg multibeam vendor format
0160_20150809_151110_revelle.all.mb58.gz 29.64MB Kongsberg multibeam vendor format
0161_20150809_154119_revelle.all.mb58.gz 29.49MB Kongsberg multibeam vendor format
0162_20150809_161120_revelle.all.mb58.gz 29.28MB Kongsberg multibeam vendor format
0163_20150809_164107_revelle.all.mb58.gz 29.78MB Kongsberg multibeam vendor format
0164_20150809_171121_revelle.all.mb58.gz 29.25MB Kongsberg multibeam vendor format
0165_20150809_174106_revelle.all.mb58.gz 29.66MB Kongsberg multibeam vendor format
0166_20150809_181118_revelle.all.mb58.gz 29.31MB Kongsberg multibeam vendor format
0167_20150809_184106_revelle.all.mb58.gz 29.59MB Kongsberg multibeam vendor format
0168_20150809_191112_revelle.all.mb58.gz 29.36MB Kongsberg multibeam vendor format
0169_20150809_194104_revelle.all.mb58.gz 29.79MB Kongsberg multibeam vendor format
0170_20150809_201120_revelle.all.mb58.gz 29.33MB Kongsberg multibeam vendor format
0171_20150809_204110_revelle.all.mb58.gz 29.45MB Kongsberg multibeam vendor format
0172_20150809_211105_revelle.all.mb58.gz 29.73MB Kongsberg multibeam vendor format
0173_20150809_214118_revelle.all.mb58.gz 29.51MB Kongsberg multibeam vendor format
0174_20150809_221116_revelle.all.mb58.gz 29.48MB Kongsberg multibeam vendor format
0175_20150809_224115_revelle.all.mb58.gz 29.43MB Kongsberg multibeam vendor format
0176_20150809_231111_revelle.all.mb58.gz 29.63MB Kongsberg multibeam vendor format
0177_20150809_234117_revelle.all.mb58.gz 29.39MB Kongsberg multibeam vendor format
0178_20150810_001103_revelle.all.mb58.gz 30.52MB Kongsberg multibeam vendor format
0179_20150810_004115_revelle.all.mb58.gz 29.48MB Kongsberg multibeam vendor format
0180_20150810_011117_revelle.all.mb58.gz 29.28MB Kongsberg multibeam vendor format
0181_20150810_014102_revelle.all.mb58.gz 17.05MB Kongsberg multibeam vendor format
0182_20150810_052910_revelle.all.mb58.gz 29.25MB Kongsberg multibeam vendor format
0183_20150810_055856_revelle.all.mb58.gz 28.41MB Kongsberg multibeam vendor format
0184_20150810_062854_revelle.all.mb58.gz 28.59MB Kongsberg multibeam vendor format
0185_20150810_065857_revelle.all.mb58.gz 28.53MB Kongsberg multibeam vendor format
0186_20150810_072856_revelle.all.mb58.gz 29.14MB Kongsberg multibeam vendor format
0187_20150810_075855_revelle.all.mb58.gz 28.52MB Kongsberg multibeam vendor format
0188_20150810_082851_revelle.all.mb58.gz 29.22MB Kongsberg multibeam vendor format
0189_20150810_085849_revelle.all.mb58.gz 28.57MB Kongsberg multibeam vendor format
0190_20150810_092848_revelle.all.mb58.gz 28.48MB Kongsberg multibeam vendor format
0191_20150810_095852_revelle.all.mb58.gz 28.50MB Kongsberg multibeam vendor format
0192_20150810_102902_revelle.all.mb58.gz 28.37MB Kongsberg multibeam vendor format
0193_20150810_105855_revelle.all.mb58.gz 27.40MB Kongsberg multibeam vendor format
0194_20150810_112851_revelle.all.mb58.gz 28.50MB Kongsberg multibeam vendor format
0195_20150810_115848_revelle.all.mb58.gz 28.30MB Kongsberg multibeam vendor format
0196_20150810_122858_revelle.all.mb58.gz 27.59MB Kongsberg multibeam vendor format
0197_20150810_125851_revelle.all.mb58.gz 28.39MB Kongsberg multibeam vendor format
0198_20150810_132859_revelle.all.mb58.gz 28.24MB Kongsberg multibeam vendor format
0199_20150810_135854_revelle.all.mb58.gz 27.23MB Kongsberg multibeam vendor format
0200_20150810_142849_revelle.all.mb58.gz 27.71MB Kongsberg multibeam vendor format
0201_20150810_145850_revelle.all.mb58.gz 27.34MB Kongsberg multibeam vendor format
0202_20150810_152847_revelle.all.mb58.gz 27.33MB Kongsberg multibeam vendor format
0203_20150810_155850_revelle.all.mb58.gz 27.39MB Kongsberg multibeam vendor format
0204_20150810_162856_revelle.all.mb58.gz 27.92MB Kongsberg multibeam vendor format
0205_20150810_165848_revelle.all.mb58.gz 28.00MB Kongsberg multibeam vendor format
0206_20150810_172858_revelle.all.mb58.gz 27.61MB Kongsberg multibeam vendor format
0207_20150810_175846_revelle.all.mb58.gz 28.43MB Kongsberg multibeam vendor format
0208_20150810_182855_revelle.all.mb58.gz 29.29MB Kongsberg multibeam vendor format
0209_20150810_185848_revelle.all.mb58.gz 29.83MB Kongsberg multibeam vendor format
0210_20150810_192905_revelle.all.mb58.gz 29.15MB Kongsberg multibeam vendor format
0211_20150810_195844_revelle.all.mb58.gz 29.83MB Kongsberg multibeam vendor format
0212_20150810_202856_revelle.all.mb58.gz 29.54MB Kongsberg multibeam vendor format
0213_20150810_205900_revelle.all.mb58.gz 29.33MB Kongsberg multibeam vendor format
0214_20150810_212848_revelle.all.mb58.gz 29.69MB Kongsberg multibeam vendor format
0215_20150810_215853_revelle.all.mb58.gz 29.61MB Kongsberg multibeam vendor format
0216_20150810_222854_revelle.all.mb58.gz 29.66MB Kongsberg multibeam vendor format
0217_20150810_225854_revelle.all.mb58.gz 29.54MB Kongsberg multibeam vendor format
0218_20150810_232848_revelle.all.mb58.gz 29.64MB Kongsberg multibeam vendor format
0219_20150810_235845_revelle.all.mb58.gz 29.71MB Kongsberg multibeam vendor format
0220_20150811_002855_revelle.all.mb58.gz 29.34MB Kongsberg multibeam vendor format
0221_20150811_005850_revelle.all.mb58.gz 29.51MB Kongsberg multibeam vendor format
0222_20150811_012849_revelle.all.mb58.gz 29.89MB Kongsberg multibeam vendor format
0223_20150811_015901_revelle.all.mb58.gz 2.11MB Kongsberg multibeam vendor format
0224_20150811_033817_revelle.all.mb58.gz 29.26MB Kongsberg multibeam vendor format
0225_20150811_040806_revelle.all.mb58.gz 29.34MB Kongsberg multibeam vendor format
0226_20150811_043808_revelle.all.mb58.gz 29.49MB Kongsberg multibeam vendor format
0227_20150811_050804_revelle.all.mb58.gz 29.44MB Kongsberg multibeam vendor format
0228_20150811_053807_revelle.all.mb58.gz 29.77MB Kongsberg multibeam vendor format
0229_20150811_060810_revelle.all.mb58.gz 29.77MB Kongsberg multibeam vendor format
0230_20150811_063759_revelle.all.mb58.gz 29.95MB Kongsberg multibeam vendor format
0231_20150811_070805_revelle.all.mb58.gz 29.53MB Kongsberg multibeam vendor format
0232_20150811_073755_revelle.all.mb58.gz 29.54MB Kongsberg multibeam vendor format
0233_20150811_080759_revelle.all.mb58.gz 29.41MB Kongsberg multibeam vendor format
0234_20150811_083759_revelle.all.mb58.gz 27.75MB Kongsberg multibeam vendor format
0235_20150811_090755_revelle.all.mb58.gz 28.86MB Kongsberg multibeam vendor format
0236_20150811_093759_revelle.all.mb58.gz 28.05MB Kongsberg multibeam vendor format
0237_20150811_100805_revelle.all.mb58.gz 28.03MB Kongsberg multibeam vendor format
0238_20150811_103754_revelle.all.mb58.gz 28.17MB Kongsberg multibeam vendor format
0239_20150811_110754_revelle.all.mb58.gz 28.47MB Kongsberg multibeam vendor format
0240_20150811_113756_revelle.all.mb58.gz 28.39MB Kongsberg multibeam vendor format
0241_20150811_120758_revelle.all.mb58.gz 27.57MB Kongsberg multibeam vendor format
0242_20150811_123757_revelle.all.mb58.gz 27.20MB Kongsberg multibeam vendor format
0243_20150811_130756_revelle.all.mb58.gz 28.33MB Kongsberg multibeam vendor format
0244_20150811_133802_revelle.all.mb58.gz 27.98MB Kongsberg multibeam vendor format
0245_20150811_140755_revelle.all.mb58.gz 28.45MB Kongsberg multibeam vendor format
0246_20150811_143803_revelle.all.mb58.gz 29.48MB Kongsberg multibeam vendor format
0247_20150811_150755_revelle.all.mb58.gz 28.17MB Kongsberg multibeam vendor format
0248_20150811_153756_revelle.all.mb58.gz 28.55MB Kongsberg multibeam vendor format
0249_20150811_160754_revelle.all.mb58.gz 28.98MB Kongsberg multibeam vendor format
0250_20150811_163757_revelle.all.mb58.gz 28.42MB Kongsberg multibeam vendor format
0251_20150811_170754_revelle.all.mb58.gz 29.36MB Kongsberg multibeam vendor format
0252_20150811_173802_revelle.all.mb58.gz 28.39MB Kongsberg multibeam vendor format
0253_20150811_180804_revelle.all.mb58.gz 28.01MB Kongsberg multibeam vendor format
0254_20150811_183757_revelle.all.mb58.gz 29.02MB Kongsberg multibeam vendor format
0255_20150811_190801_revelle.all.mb58.gz 29.62MB Kongsberg multibeam vendor format
0256_20150811_193812_revelle.all.mb58.gz 29.12MB Kongsberg multibeam vendor format
0257_20150811_200810_revelle.all.mb58.gz 29.00MB Kongsberg multibeam vendor format
0258_20150811_203759_revelle.all.mb58.gz 29.26MB Kongsberg multibeam vendor format
0259_20150811_210803_revelle.all.mb58.gz 29.32MB Kongsberg multibeam vendor format
0260_20150811_213813_revelle.all.mb58.gz 29.18MB Kongsberg multibeam vendor format
0261_20150811_220811_revelle.all.mb58.gz 29.16MB Kongsberg multibeam vendor format
0262_20150811_223808_revelle.all.mb58.gz 29.01MB Kongsberg multibeam vendor format
0263_20150811_230758_revelle.all.mb58.gz 29.38MB Kongsberg multibeam vendor format
0264_20150811_233811_revelle.all.mb58.gz 28.92MB Kongsberg multibeam vendor format
0265_20150812_000755_revelle.all.mb58.gz 29.26MB Kongsberg multibeam vendor format
0266_20150812_003803_revelle.all.mb58.gz 29.16MB Kongsberg multibeam vendor format
0267_20150812_010802_revelle.all.mb58.gz 29.16MB Kongsberg multibeam vendor format
0268_20150812_013759_revelle.all.mb58.gz 29.34MB Kongsberg multibeam vendor format
0269_20150812_020809_revelle.all.mb58.gz 29.02MB Kongsberg multibeam vendor format
0270_20150812_023801_revelle.all.mb58.gz 29.15MB Kongsberg multibeam vendor format
0271_20150812_030803_revelle.all.mb58.gz 29.19MB Kongsberg multibeam vendor format
0272_20150812_033809_revelle.all.mb58.gz 28.96MB Kongsberg multibeam vendor format
0273_20150812_040758_revelle.all.mb58.gz 29.25MB Kongsberg multibeam vendor format
0274_20150812_043805_revelle.all.mb58.gz 29.11MB Kongsberg multibeam vendor format
0275_20150812_050801_revelle.all.mb58.gz 28.97MB Kongsberg multibeam vendor format
0276_20150812_053747_revelle.all.mb58.gz 29.16MB Kongsberg multibeam vendor format
0277_20150812_060747_revelle.all.mb58.gz 29.31MB Kongsberg multibeam vendor format
0278_20150812_063800_revelle.all.mb58.gz 29.18MB Kongsberg multibeam vendor format
0279_20150812_070805_revelle.all.mb58.gz 28.94MB Kongsberg multibeam vendor format
0280_20150812_073753_revelle.all.mb58.gz 29.39MB Kongsberg multibeam vendor format
0281_20150812_080809_revelle.all.mb58.gz 28.90MB Kongsberg multibeam vendor format
0282_20150812_083751_revelle.all.mb58.gz 29.16MB Kongsberg multibeam vendor format
0283_20150812_090752_revelle.all.mb58.gz 29.06MB Kongsberg multibeam vendor format
0284_20150812_093746_revelle.all.mb58.gz 29.27MB Kongsberg multibeam vendor format
0285_20150812_100754_revelle.all.mb58.gz 29.10MB Kongsberg multibeam vendor format
0286_20150812_103749_revelle.all.mb58.gz 29.17MB Kongsberg multibeam vendor format
0287_20150812_110752_revelle.all.mb58.gz 29.13MB Kongsberg multibeam vendor format
0288_20150812_113749_revelle.all.mb58.gz 29.27MB Kongsberg multibeam vendor format
0289_20150812_120756_revelle.all.mb58.gz 29.14MB Kongsberg multibeam vendor format
0290_20150812_123800_revelle.all.mb58.gz 29.15MB Kongsberg multibeam vendor format
0291_20150812_130802_revelle.all.mb58.gz 29.04MB Kongsberg multibeam vendor format
0292_20150812_133756_revelle.all.mb58.gz 29.18MB Kongsberg multibeam vendor format
0293_20150812_140759_revelle.all.mb58.gz 29.08MB Kongsberg multibeam vendor format
0294_20150812_143757_revelle.all.mb58.gz 29.14MB Kongsberg multibeam vendor format
0295_20150812_150800_revelle.all.mb58.gz 29.02MB Kongsberg multibeam vendor format
0296_20150812_153751_revelle.all.mb58.gz 29.33MB Kongsberg multibeam vendor format
0297_20150812_160802_revelle.all.mb58.gz 28.89MB Kongsberg multibeam vendor format
0298_20150812_163744_revelle.all.mb58.gz 29.50MB Kongsberg multibeam vendor format
0299_20150812_170807_revelle.all.mb58.gz 28.93MB Kongsberg multibeam vendor format
0300_20150812_173757_revelle.all.mb58.gz 29.06MB Kongsberg multibeam vendor format
0301_20150812_180753_revelle.all.mb58.gz 29.11MB Kongsberg multibeam vendor format
0302_20150812_183752_revelle.all.mb58.gz 29.18MB Kongsberg multibeam vendor format
0303_20150812_190757_revelle.all.mb58.gz 29.20MB Kongsberg multibeam vendor format
0304_20150812_193759_revelle.all.mb58.gz 28.90MB Kongsberg multibeam vendor format
0305_20150812_200745_revelle.all.mb58.gz 29.41MB Kongsberg multibeam vendor format
0306_20150812_203802_revelle.all.mb58.gz 28.94MB Kongsberg multibeam vendor format
0307_20150812_210747_revelle.all.mb58.gz 29.23MB Kongsberg multibeam vendor format
0308_20150812_213752_revelle.all.mb58.gz 29.18MB Kongsberg multibeam vendor format
0309_20150812_220754_revelle.all.mb58.gz 29.02MB Kongsberg multibeam vendor format
0310_20150812_223743_revelle.all.mb58.gz 29.45MB Kongsberg multibeam vendor format
0311_20150812_230803_revelle.all.mb58.gz 29.06MB Kongsberg multibeam vendor format
0312_20150812_233753_revelle.all.mb58.gz 26.74MB Kongsberg multibeam vendor format

Metadata Files: 3

Files File Size Description
RR1511_Multibeam.xml NGDC created ISO metadata
em122_bag_info.tar.gz 14.3KB Additional cruise information
xbt_bag_info.tar.gz 2.4KB Additional cruise information

Ancillary Files: 1

Files File Size Description
xbt.tar.gz 457.2KB Expendable Bathythermograph (XBT) data